DW8835 La Escala ES current weather conditions

sailwx.info

Wind from 221

Air temperature 8.3° C
Dewpoint 6.5° C

Last reported at 2014-Dec-21 20:50 UTC.
Time now 2014-Dec-21 21:34 UTC

Location: N 42°07' E 003°08'.
View on Google Maps.

See reports from other nearby stations

  
Tides and Currents Weather Stations Pressure Air Temp Water Temp Dewpoint Dewpoint Depression Visibility Wind Speed Wind Dir Waves Ship Positions
date/time (UTC)wind fromknots sea level pressurealtimeterstation pressurevisibilityair tempwater tempwave heightnotes
2014-Dec-21 20:50 221 8.3
2014-Dec-21 20:40 221 8.3
2014-Dec-21 20:30 221 8.9
2014-Dec-21 20:20 221 8.9
2014-Dec-21 20:10 221 8.9
2014-Dec-21 20:00 219 0 gusting 3 9.4
2014-Dec-21 19:50 219 1 gusting 3 9.4
2014-Dec-21 19:40 228 9.4
2014-Dec-21 19:30 229 1 gusting 4 9.4
2014-Dec-21 19:20 195 1 gusting 2 9.4
2014-Dec-21 19:10 194 0 gusting 1 9.4
2014-Dec-21 19:00 194 10.0
2014-Dec-21 18:50 194 10.0
2014-Dec-21 18:40 194 10.0
2014-Dec-21 18:30 194 0 gusting 1 10.6
2014-Dec-21 18:20 193 10.6
2014-Dec-21 18:10 193 1 gusting 2 10.6
2014-Dec-21 18:00 198 1 gusting 3 11.1
2014-Dec-21 17:50 198 0 gusting 2 11.1
2014-Dec-21 17:40 197 11.7
2014-Dec-21 17:30 197 11.7
2014-Dec-21 17:20 194 2 gusting 4 11.7
2014-Dec-21 17:10 171 1 gusting 2 12.2
2014-Dec-21 17:00 157 2 gusting 3 12.2
2014-Dec-21 16:50 150 12.2
2014-Dec-21 16:40 149 12.8
2014-Dec-21 16:30 147 1 gusting 3 12.8
2014-Dec-21 16:20 165 2 gusting 3 13.3
2014-Dec-21 16:10 169 2 gusting 3 13.3
2014-Dec-21 16:00 159 1 gusting 2 13.3
2014-Dec-21 15:50 151 13.3
2014-Dec-21 15:40 147 2 gusting 4 13.9
2014-Dec-21 15:30 136 0 gusting 3 13.9
2014-Dec-21 15:20 150 1 gusting 2 14.4
2014-Dec-21 15:10 129 14.4
2014-Dec-21 15:00 112 0 gusting 3 14.4
2014-Dec-21 14:50 107 2 gusting 4 13.9
2014-Dec-21 14:40 107 2 gusting 4 14.4
2014-Dec-21 14:30 111 2 gusting 4 14.4
2014-Dec-21 14:20 112 2 gusting 4 14.4
2014-Dec-21 14:10 097 2 gusting 4 14.4
2014-Dec-21 14:00 122 2 gusting 5 14.4
2014-Dec-21 13:50 101 1 gusting 3 14.4
2014-Dec-21 13:40 096 1 gusting 5 13.9
2014-Dec-21 13:30 093 2 gusting 5 13.9
2014-Dec-21 13:20 089 1 gusting 2 14.4
2014-Dec-21 13:10 302 1 gusting 4 14.4
2014-Dec-21 13:00 187 1 gusting 4 14.4
2014-Dec-21 12:50 232 0 gusting 3 14.4
2014-Dec-21 12:40 176 1 gusting 3 13.9
2014-Dec-21 12:30 242 0 gusting 3 13.3
2014-Dec-21 12:20 182 13.9
2014-Dec-21 12:10 184 13.3
2014-Dec-21 12:00 183 1 gusting 3 13.3
2014-Dec-21 11:50 177 1 gusting 3 12.8
2014-Dec-21 11:40 162 1 gusting 4 12.2
2014-Dec-21 11:30 268 12.2
2014-Dec-21 11:20 265 11.7
2014-Dec-21 11:10 262 0 gusting 3 11.7
2014-Dec-21 11:00 244 11.7
2014-Dec-21 10:50 198 0 gusting 2 11.1
2014-Dec-21 10:40 196 1 gusting 3 10.6
2014-Dec-21 10:30 259 10.6
2014-Dec-21 10:20 258 1 gusting 2 10.0
2014-Dec-21 10:10 197 0 gusting 3 10.0
2014-Dec-21 10:00 262 0 gusting 2 10.0
2014-Dec-21 09:50 262 9.4
2014-Dec-21 09:40 194 9.4
2014-Dec-21 09:30 190 0 gusting 1 8.9
2014-Dec-21 09:20 188 1 gusting 2 7.8
2014-Dec-21 09:10 196 1 gusting 3 7.2
2014-Dec-21 09:00 221 0 gusting 3 7.2
2014-Dec-21 08:50 343 0 gusting 2 7.2
2014-Dec-21 08:40 285 0 gusting 2 6.7
2014-Dec-21 08:30 176 6.1
2014-Dec-21 08:20 175 6.1
2014-Dec-21 08:10 171 0 gusting 2 5.6
2014-Dec-21 08:00 211 5.6
2014-Dec-21 07:50 198 0 gusting 2 5.6
2014-Dec-21 07:40 169 5.0
2014-Dec-21 07:30 169 5.0
2014-Dec-21 07:20 169 1 gusting 3 5.0
2014-Dec-21 07:10 169 2 gusting 3 5.0
2014-Dec-21 07:00 159 5.0
2014-Dec-21 06:50 201 0 gusting 2 5.0
2014-Dec-21 06:40 207 0 gusting 2 5.0
2014-Dec-21 06:30 205 2 gusting 4 5.6
2014-Dec-21 06:20 200 5.6
2014-Dec-21 06:10 200 0 gusting 4 5.6
2014-Dec-21 06:00 198 1 gusting 6 5.6
2014-Dec-21 05:50 207 0 gusting 3 5.6
2014-Dec-21 05:40 208 5.6
2014-Dec-21 05:30 208 5.6
2014-Dec-21 05:20 208 5.6
2014-Dec-21 05:10 208 5.6
2014-Dec-21 05:00 227 2 gusting 4 6.1
2014-Dec-21 04:50 188 6.1
2014-Dec-21 04:40 188 0 gusting 2 6.1
2014-Dec-21 04:30 188 0 gusting 3 5.6
2014-Dec-21 04:20 182 1 gusting 5 5.6
2014-Dec-21 04:10 204 6.1
2014-Dec-21 04:00 204 6.1
2014-Dec-21 03:50 221 0 gusting 3 6.1
2014-Dec-21 03:40 200 0 gusting 2 6.1
2014-Dec-21 03:30 232 6.1
2014-Dec-21 03:20 232 0 gusting 3 6.7
2014-Dec-21 03:10 232 6.7
2014-Dec-21 03:00 232 6.7
2014-Dec-21 02:50 228 7.2
2014-Dec-21 02:40 203 7.2
2014-Dec-21 02:30 203 7.2
2014-Dec-21 02:20 203 7.2
2014-Dec-21 02:10 203 7.2
2014-Dec-21 02:00 203 0 gusting 1 7.2
2014-Dec-21 01:50 204 7.8
2014-Dec-21 01:40 201 0 gusting 4 7.8
2014-Dec-21 01:30 179 0 gusting 3 7.8
2014-Dec-21 01:20 199 0 gusting 3 7.8
2014-Dec-21 01:10 196 0 gusting 4 7.8
2014-Dec-21 01:00 186 2 gusting 4 8.3
2014-Dec-21 00:50 185 0 gusting 3 8.3
2014-Dec-21 00:40 186 1 gusting 3 8.3
2014-Dec-21 00:30 190 8.3
2014-Dec-21 00:20 187 2 gusting 5 8.3
2014-Dec-21 00:10 180 0 gusting 2 8.3
2014-Dec-21 00:00 180 0 gusting 3 8.9
2014-Dec-20 23:50 180 3 gusting 6 8.9
2014-Dec-20 23:40 184 2 gusting 6 8.9
2014-Dec-20 23:30 173 0 gusting 3 9.4
2014-Dec-20 23:20 173 1 gusting 3 9.4
2014-Dec-20 23:10 193 0 gusting 2 9.4
2014-Dec-20 23:00 225 0 gusting 4 9.4
2014-Dec-20 22:50 232 0 gusting 3 9.4
2014-Dec-20 22:40 175 2 gusting 4 9.4
2014-Dec-20 22:30 188 4 gusting 6 9.4
2014-Dec-20 22:20 186 9.4
2014-Dec-20 22:10 185 2 gusting 4 10.0
2014-Dec-20 22:00 207 1 gusting 2 10.0
2014-Dec-20 21:50 205 1 gusting 6 10.0
2014-Dec-20 21:40 196 4 gusting 7 10.6
2014-Dec-20 21:30 194 0 gusting 6 11.1
2014-Dec-20 21:20 236 3 gusting 5 11.7
2014-Dec-20 21:10 294 4 gusting 5 11.7
2014-Dec-20 21:00 191 2 gusting 6 12.2
2014-Dec-20 20:50 287 3 gusting 6 12.2
2014-Dec-20 20:40 196 2 gusting 5 12.8
2014-Dec-20 20:30 323 4 gusting 7 12.8
2014-Dec-20 20:20 312 5 gusting 8 13.3
2014-Dec-20 20:10 337 2 gusting 4 13.9
2014-Dec-20 20:00 326 2 gusting 5 13.9
2014-Dec-20 19:50 360 2 gusting 6 13.9
2014-Dec-20 19:40 021 1 gusting 8 14.4
2014-Dec-20 19:30 323 6 gusting 13 14.4
2014-Dec-20 19:20 005 6 gusting 16 15.0
2014-Dec-20 19:10 347 8 gusting 18 15.0
2014-Dec-20 19:00 324 7 gusting 17 14.4
2014-Dec-20 18:50 005 6 gusting 11 12.8
2014-Dec-20 18:40 302 1 gusting 2 12.2
2014-Dec-20 18:30 179 12.8
2014-Dec-20 18:20 179 12.8
2014-Dec-20 18:10 107 13.3
2014-Dec-20 18:00 104 0 gusting 2 13.3
2014-Dec-20 17:50 131 13.3
2014-Dec-20 17:40 131 0 gusting 1 13.9
2014-Dec-20 17:30 131 0 gusting 1 13.9
2014-Dec-20 17:20 132 13.9
2014-Dec-20 17:10 132 13.9
2014-Dec-20 17:00 204 0 gusting 3 14.4
2014-Dec-20 16:50 200 14.4
2014-Dec-20 16:40 200 0 gusting 2 15.0
2014-Dec-20 16:30 201 15.0
2014-Dec-20 16:10 201 0 gusting 3 15.6
2014-Dec-20 16:00 184 15.6
2014-Dec-20 15:50 184 0 gusting 4 16.1
2014-Dec-20 15:40 180 1 gusting 4 16.1
2014-Dec-20 15:30 153 1 gusting 2 16.1
2014-Dec-20 15:20 139 0 gusting 2 16.7
2014-Dec-20 15:10 134 0 gusting 3 16.7
2014-Dec-20 15:00 194 3 gusting 6 16.7
2014-Dec-20 14:50 166 1 gusting 5 17.2
2014-Dec-20 14:40 193 2 gusting 5 17.2
2014-Dec-20 14:30 146 2 gusting 5 17.2
2014-Dec-20 14:20 136 3 gusting 5 17.2
2014-Dec-20 14:10 115 1 gusting 3 17.8
2014-Dec-20 14:00 188 3 gusting 5 17.2
2014-Dec-20 13:50 325 0 gusting 3 17.2
2014-Dec-20 13:40 242 17.8
2014-Dec-20 13:30 186 2 gusting 5 17.8
2014-Dec-20 13:20 212 1 gusting 4 17.2
2014-Dec-20 13:10 267 1 gusting 6 17.2
2014-Dec-20 13:00 236 3 gusting 5 17.2
2014-Dec-20 12:50 202 3 gusting 5 16.7
2014-Dec-20 12:40 213 1 gusting 6 16.7
2014-Dec-20 12:30 198 2 gusting 6 16.7
2014-Dec-20 12:20 211 1 gusting 6 16.1
2014-Dec-20 12:10 152 2 gusting 4 16.1
2014-Dec-20 12:00 204 3 gusting 6 16.1
2014-Dec-20 11:50 169 4 gusting 8 15.6
2014-Dec-20 11:40 188 2 gusting 5 15.6
2014-Dec-20 11:30 220 1 gusting 6 15.6
2014-Dec-20 11:20 207 5 gusting 9 15.6
2014-Dec-20 11:10 211 0 gusting 4 15.6
2014-Dec-20 11:00 203 0 gusting 3 14.4
2014-Dec-20 10:50 250 2 gusting 4 14.4
2014-Dec-20 10:40 288 2 gusting 6 14.4
2014-Dec-20 10:30 287 3 gusting 6 13.9
2014-Dec-20 10:20 267 3 gusting 6 13.9
2014-Dec-20 10:10 211 2 gusting 6 12.8
2014-Dec-20 10:00 232 3 gusting 6 12.8
2014-Dec-20 09:50 221 3 gusting 6 12.2
2014-Dec-20 09:40 188 2 gusting 6 11.7
2014-Dec-20 09:30 206 3 gusting 6 11.7
2014-Dec-20 09:20 203 2 gusting 5 11.1
2014-Dec-20 09:10 171 0 gusting 3 10.6
2014-Dec-20 09:00 169 10.0
2014-Dec-20 08:50 168 9.4
2014-Dec-20 08:40 167 1 gusting 3 9.4
2014-Dec-20 08:30 274 0 gusting 1 8.9
2014-Dec-20 08:20 273 8.3
2014-Dec-20 08:10 273 7.8
2014-Dec-20 08:00 250 3 gusting 5 7.2
2014-Dec-20 07:50 265 2 gusting 4 7.2
2014-Dec-20 07:40 189 6.7
2014-Dec-20 07:30 188 0 gusting 4 6.7
2014-Dec-20 07:20 200 1 gusting 4 6.7
2014-Dec-20 07:10 183 7.2
2014-Dec-20 07:00 180 7.2
2014-Dec-20 06:50 173 2 gusting 5 7.2
2014-Dec-20 06:40 291 0 gusting 5 7.2
2014-Dec-20 06:30 229 2 gusting 5 7.2
2014-Dec-20 06:20 217 3 gusting 6 7.2
2014-Dec-20 06:10 241 1 gusting 5 7.2
2014-Dec-20 06:00 198 0 gusting 5 7.2
2014-Dec-20 05:50 207 2 gusting 6 7.2
2014-Dec-20 05:40 173 0 gusting 3 7.8
2014-Dec-20 05:30 205 7.8
2014-Dec-20 05:20 195 2 gusting 4 7.8
2014-Dec-20 05:10 217 0 gusting 4 7.8
2014-Dec-20 05:00 178 2 gusting 3 7.8
2014-Dec-20 04:50 157 0 gusting 3 7.8
2014-Dec-20 04:40 145 2 gusting 3 7.8
2014-Dec-20 04:30 250 0 gusting 6 7.8
2014-Dec-20 04:20 213 2 gusting 5 7.8
2014-Dec-20 04:10 275 1 gusting 4 8.3
2014-Dec-20 04:00 216 1 gusting 4 8.3
2014-Dec-20 03:50 191 0 gusting 2 8.3
2014-Dec-20 03:40 184 0 gusting 3 8.3
2014-Dec-20 03:30 182 0 gusting 2 8.9
2014-Dec-20 03:20 174 1 gusting 3 8.9
2014-Dec-20 03:10 161 8.9
2014-Dec-20 03:00 161 0 gusting 3 8.9
2014-Dec-20 02:50 175 0 gusting 3 8.9
2014-Dec-20 02:40 157 1 gusting 3 8.9
2014-Dec-20 02:30 136 2 gusting 3 8.9
2014-Dec-20 02:20 224 1 gusting 4 9.4
2014-Dec-20 02:10 215 1 gusting 5 9.4
2014-Dec-20 02:00 230 1 gusting 4 10.0
2014-Dec-20 01:50 178 0 gusting 3 10.6
2014-Dec-20 01:40 092 0 gusting 2 10.6
2014-Dec-20 01:30 355 10.6
2014-Dec-20 01:20 355 10.6
2014-Dec-20 01:10 355 10.6
2014-Dec-20 01:00 346 10.6
2014-Dec-20 00:50 292 0 gusting 4 11.1
2014-Dec-20 00:40 281 2 gusting 6 11.1
2014-Dec-20 00:30 274 1 gusting 4 11.1
2014-Dec-20 00:20 290 3 gusting 6 11.7
2014-Dec-20 00:10 316 3 gusting 6 11.7
2014-Dec-20 00:00 296 6 gusting 9 11.7
2014-Dec-19 23:50 284 6 gusting 8 11.7
2014-Dec-19 23:40 309 6 gusting 9 11.1
2014-Dec-19 23:30 304 5 gusting 7 11.1
2014-Dec-19 23:20 286 1 gusting 3 10.6
2014-Dec-19 23:10 286 1 gusting 2 11.1
2014-Dec-19 23:00 286 11.1
2014-Dec-19 22:50 296 0 gusting 2 11.1
2014-Dec-19 22:40 296 0 gusting 2 11.1
2014-Dec-19 22:30 296 1 gusting 3 11.1
2014-Dec-19 22:20 300 2 gusting 3 11.7
2014-Dec-19 22:09 300 0 gusting 3 11.7
2014-Dec-19 22:00 315 0 gusting 2 11.1
2014-Dec-19 21:50 315 0 gusting 2 11.1
2014-Dec-19 21:40 315 0 gusting 3 11.1
2014-Dec-19 21:30 306 11.1
2014-Dec-19 21:19 306 11.1
2014-Dec-19 21:10 306 0 gusting 1 11.1
2014-Dec-19 21:00 306 11.1